| time (UTC) | temp C | wind direction | speed KPH | gust KPH | rain 1hr cm | rain 24hr cm | rain mn cm | humidity % | barometer mb |
| 20260906170035 | 21 | 205 | 4.8 | 16.1 | 0.00 | 0.00 | 0.00 | 95 | 1019.4 |
| 20260906164515 | 21 | 152 | 4.8 | 11.3 | 0.00 | 0.00 | 0.00 | 94 | 1019.2 |
| 20260906163040 | 21 | 182 | 4.8 | 9.7 | 0.00 | 0.00 | 0.00 | 96 | 1019.1 |
| 20260906161502 | 21 | 165 | 0.0 | 8.0 | 0.00 | 0.00 | 0.00 | 99 | 1019.1 |
| 20260906160045 | 20 | 152 | 3.2 | 9.7 | 0.00 | 0.00 | 0.00 | 99 | 1019.2 |
| 20260906154553 | 20 | 137 | 1.6 | 6.4 | 0.00 | 0.00 | 0.00 | 100 | 1019.5 |
| 20260906153118 | 19 | 178 | 3.2 | 11.3 | 0.00 | 0.00 | 0.00 | 100 | 1019.3 |
| 20260906151535 | 19 | 164 | 3.2 | 9.7 | 0.00 | 0.00 | 0.00 | 100 | 1019.4 |
| 20260906150049 | 18 | 120 | 3.2 | 9.7 | 0.00 | 0.00 | 0.00 | 100 | 1019.4 |
| 20260906144603 | 18 | 147 | 3.2 | 12.9 | 0.00 | 0.00 | 0.00 | 100 | 1019.1 |
| 20260906143043 | 18 | 183 | 8.0 | 14.5 | 0.00 | 0.00 | 0.00 | 100 | 1019.0 |
| 20260906141512 | 18 | 164 | 8.0 | 14.5 | 0.00 | 0.00 | 0.00 | 100 | 1019.1 |
| 20260906140037 | 18 | 128 | 1.6 | 8.0 | 0.00 | 0.00 | 0.00 | 100 | 1019.0 |
| 20260906134618 | 18 | 162 | 6.4 | 12.9 | 0.00 | 0.00 | 0.00 | 100 | 1018.7 |
| 20260906133048 | 18 | 160 | 3.2 | 9.7 | 0.00 | 0.00 | 0.00 | 100 | 1018.4 |
| 20260906131549 | 18 | 190 | 6.4 | 16.1 | 0.00 | 0.00 | 0.00 | 100 | 1018.4 |
| 20260906130024 | 18 | 169 | 6.4 | 14.5 | 0.00 | 0.00 | 0.00 | 100 | 1018.2 |
| 20260906124550 | 18 | 152 | 8.0 | 16.1 | 0.00 | 0.00 | 0.00 | 100 | 1017.8 |
| 20260906123038 | 18 | 149 | 4.8 | 16.1 | 0.00 | 0.00 | 0.00 | 100 | 1018.1 |
| 20260906121541 | 18 | 128 | 1.6 | 11.3 | 0.00 | 0.00 | 0.00 | 100 | 1018.2 |
| 20260906120101 | 18 | 178 | 3.2 | 6.4 | 0.00 | 0.00 | 0.00 | 100 | 1018.2 |
| 20260906114523 | 18 | 167 | 1.6 | 8.0 | 0.00 | 0.00 | 0.00 | 100 | 1018.0 |
| 20260906113102 | 18 | 164 | 3.2 | 9.7 | 0.00 | 0.00 | 0.00 | 100 | 1017.9 |
| 20260906111527 | 18 | 143 | 0.0 | 3.2 | 0.00 | 0.00 | 0.00 | 100 | 1017.8 |
| 20260906110053 | 18 | 141 | 1.6 | 6.4 | 0.00 | 0.00 | 0.00 | 100 | 1017.6 |
| 20260906104506 | 18 | 125 | 0.0 | 4.8 | 0.00 | 0.00 | 0.00 | 100 | 1017.1 |
| 20260906103030 | 18 | 122 | 1.6 | 4.8 | 0.00 | 0.00 | 0.00 | 100 | 1017.3 |
| 20260906101518 | 18 | 118 | 0.0 | 6.4 | 0.00 | 0.00 | 0.00 | 100 | 1017.3 |
| 20260906100032 | 19 | 122 | 3.2 | 11.3 | 0.00 | 0.00 | 0.00 | 100 | 1017.0 |
| 20260906094601 | 19 | 116 | 3.2 | 6.4 | 0.00 | 0.00 | 0.00 | 100 | 1016.7 |
| 20260906093033 | 19 | 135 | 3.2 | 9.7 | 0.00 | 0.00 | 0.00 | 100 | 1016.6 |
| 20260906091546 | 20 | 141 | 1.6 | 9.7 | 0.00 | 0.00 | 0.00 | 100 | 1016.4 |
| 20260906090037 | 20 | 136 | 3.2 | 6.4 | 0.00 | 0.00 | 0.00 | 100 | 1016.6 |
| 20260906084612 | 20 | 122 | 0.0 | 9.7 | 0.00 | 0.00 | 0.00 | 100 | 1016.5 |
| 20260906083040 | 20 | 122 | 1.6 | 12.9 | 0.00 | 0.00 | 0.00 | 100 | 1016.4 |
| 20260906081554 | 20 | 122 | 1.6 | 14.5 | 0.00 | 0.00 | 0.00 | 100 | 1016.4 |
| 20260906080013 | 20 | 139 | 4.8 | 12.9 | 0.00 | 0.00 | 0.00 | 100 | 1016.4 |
| 20260906074542 | 20 | 101 | 1.6 | 6.4 | 0.00 | 0.00 | 0.00 | 100 | 1016.4 |
| 20260906073002 | 20 | 133 | 1.6 | 11.3 | 0.00 | 0.00 | 0.00 | 100 | 1016.5 |
| 20260906071530 | 20 | 128 | 4.8 | 12.9 | 0.00 | 0.00 | 0.00 | 100 | 1016.7 |
| 20260906070005 | 20 | 165 | 3.2 | 9.7 | 0.00 | 0.00 | 0.00 | 100 | 1016.6 |
| 20260906064533 | 20 | 110 | 1.6 | 9.7 | 0.00 | 0.00 | 0.00 | 100 | 1017.1 |
| 20260906063056 | 20 | 120 | 4.8 | 11.3 | 0.00 | 0.00 | 0.00 | 100 | 1017.0 |
| 20260906061521 | 21 | 112 | 4.8 | 9.7 | 0.00 | 0.00 | 0.00 | 100 | 1017.2 |
| 20260906060046 | 21 | 122 | 1.6 | 11.3 | 0.00 | 0.00 | 0.00 | 100 | 1017.0 |
| 20260906054525 | 20 | 112 | 1.6 | 9.7 | 0.00 | 0.00 | 0.00 | 100 | 1016.9 |
| 20260906053104 | 21 | 118 | 3.2 | 9.7 | 0.00 | 0.00 | 0.00 | 100 | 1016.8 |
| 20260906051555 | 21 | 89 | 3.2 | 9.7 | 0.00 | 0.00 | 0.00 | 99 | 1016.7 |
| 20260906050017 | 21 | 118 | 1.6 | 6.4 | 0.00 | 0.00 | 0.00 | 99 | 1016.8 |
| 20260906044600 | 21 | 114 | 1.6 | 9.7 | 0.00 | 0.00 | 0.00 | 99 | 1016.7 |
| 20260906043021 | 21 | 149 | 0.0 | 9.7 | 0.00 | 0.00 | 0.00 | 98 | 1016.7 |
| 20260906041547 | 21 | 114 | 1.6 | 9.7 | 0.00 | 0.00 | 0.00 | 98 | 1016.8 |
| 20260906040100 | 22 | 116 | 4.8 | 6.4 | 0.00 | 0.00 | 0.00 | 98 | 1016.8 |
| 20260906034550 | 22 | 114 | 0.0 | 1.6 | 0.00 | 0.00 | 0.00 | 97 | 1016.6 |
| 20260906033015 | 22 | 114 | 0.0 | 6.4 | 0.00 | 0.00 | 0.00 | 97 | 1016.4 |
| 20260906031601 | 22 | 96 | 0.0 | 4.8 | 0.00 | 0.00 | 0.00 | 97 | 1016.5 |
| 20260906030036 | 22 | 96 | 0.0 | 12.9 | 0.00 | 0.00 | 0.00 | 97 | 1015.9 |
| 20260906024603 | 22 | 135 | 0.0 | 0.0 | 0.00 | 0.00 | 0.00 | 97 | 1016.1 |
| 20260906023039 | 22 | 136 | 0.0 | 0.0 | 0.00 | 0.00 | 0.00 | 97 | 1015.9 |
| 20260906021516 | 22 | 136 | 0.0 | 0.0 | 0.00 | 0.00 | 0.00 | 97 | 1015.5 |
| 20260906020105 | 22 | 136 | 0.0 | 0.0 | 0.00 | 0.00 | 0.00 | 97 | 1015.4 |
| 20260906014526 | 22 | 137 | 0.0 | 0.0 | 0.00 | 0.00 | 0.00 | 97 | 1015.2 |
| 20260906013100 | 23 | 136 | 0.0 | 0.0 | 0.00 | 0.00 | 0.00 | 96 | 1015.0 |
| 20260906011523 | 23 | 138 | 1.6 | 6.4 | 0.00 | 0.00 | 0.00 | 96 | 1014.8 |
| 20260906010103 | 23 | 134 | 0.0 | 3.2 | 0.00 | 0.00 | 0.00 | 95 | 1014.6 |
| 20260906004541 | 23 | 129 | 3.2 | 11.3 | 0.00 | 0.00 | 0.00 | 95 | 1014.5 |
| 20260906003002 | 23 | 127 | 3.2 | 11.3 | 0.00 | 0.00 | 0.00 | 94 | 1014.5 |
| 20260906001528 | 24 | 143 | 3.2 | 11.3 | 0.00 | 0.00 | 0.00 | 94 | 1014.3 |
| 20260906000104 | 24 | 135 | 3.2 | 12.9 | 0.00 | 0.00 | 0.00 | 93 | 1014.3 |
| 20260905234516 | 25 | 122 | 3.2 | 11.3 | 0.00 | 0.00 | 0.00 | 91 | 1014.4 |
| 20260905233044 | 25 | 135 | 3.2 | 14.5 | 0.00 | 0.00 | 0.00 | 90 | 1014.3 |
| 20260905231506 | 25 | 124 | 3.2 | 11.3 | 0.00 | 0.00 | 0.00 | 88 | 1014.5 |
| 20260905230028 | 25 | 102 | 6.4 | 19.3 | 0.00 | 0.51 | 0.00 | 88 | 1014.4 |
| 20260905224555 | 25 | 152 | 8.0 | 17.7 | 0.00 | 0.51 | 0.00 | 89 | 1014.1 |
| 20260905223012 | 26 | 145 | 4.8 | 19.3 | 0.00 | 0.51 | 0.00 | 88 | 1014.1 |
| 20260905221539 | 26 | 133 | 8.0 | 22.5 | 0.00 | 0.51 | 0.00 | 89 | 1014.0 |
| 20260905220010 | 25 | 116 | 8.0 | 17.7 | 0.00 | 0.51 | 0.00 | 89 | 1014.1 |
| 20260905214553 | 25 | 134 | 8.0 | 20.9 | 0.00 | 0.51 | 0.00 | 91 | 1014.2 |
| 20260905213027 | 25 | 115 | 6.4 | 17.7 | 0.00 | 0.51 | 0.00 | 92 | 1014.4 |
| 20260905211539 | 25 | 116 | 9.7 | 17.7 | 0.00 | 0.51 | 0.00 | 91 | 1014.5 |
| 20260905210022 | 25 | 124 | 3.2 | 12.9 | 0.00 | 0.51 | 0.00 | 92 | 1014.8 |
| 20260905204559 | 25 | 135 | 6.4 | 14.5 | 0.00 | 0.51 | 0.00 | 92 | 1014.6 |
| 20260905203020 | 25 | 85 | 6.4 | 17.7 | 0.00 | 0.51 | 0.00 | 93 | 1014.6 |
| 20260905201546 | 25 | 95 | 3.2 | 12.9 | 0.00 | 0.51 | 0.00 | 95 | 1014.7 |
| 20260905194503 | 25 | 88 | 4.8 | 16.1 | 0.00 | 0.51 | 0.00 | 93 | 1015.1 |
| 20260905193045 | 25 | 45 | 4.8 | 14.5 | 0.00 | 0.51 | 0.00 | 94 | 1015.0 |
| 20260905191522 | 25 | 75 | 1.6 | 12.9 | 0.00 | 0.51 | 0.00 | 93 | 1015.3 |
| 20260905190047 | 25 | 66 | 6.4 | 14.5 | 0.00 | 0.51 | 0.00 | 93 | 1015.3 |
| 20260905184511 | 25 | 79 | 8.0 | 17.7 | 0.00 | 0.51 | 0.00 | 92 | 1015.4 |
| 20260905183047 | 26 | 85 | 3.2 | 17.7 | 0.00 | 0.51 | 0.00 | 92 | 1015.1 |
| 20260905181509 | 26 | 86 | 3.2 | 16.1 | 0.00 | 0.51 | 0.00 | 92 | 1015.2 |
| 20260905180033 | 25 | 64 | 8.0 | 17.7 | 0.00 | 0.51 | 0.00 | 93 | 1015.2 |
| 20260905174606 | 25 | 95 | 6.4 | 16.1 | 0.00 | 0.51 | 0.00 | 94 | 1015.1 |
| 20260905173038 | 24 | 87 | 6.4 | 16.1 | 0.00 | 0.51 | 0.00 | 96 | 1015.3 |
| 20260905171635 | 24 | 56 | 6.4 | 14.5 | 0.00 | 0.51 | 0.00 | 96 | 1015.4 |